RH
65 61 54 49 42 42 50 41 57 38 39 33 36 34 30 26 22 18 18 19 24 30 35 39 44 48 53 63 72 71 75 74 89 98 98 94 80 73 70 67 61 56 51 46
67 63 61 58 54 46 43 50 51 51 45 41 35 33 36 31 27 23 22 20 24 30 39 46 48 52 59 65 71 75 76 81 92 99 99 88 76 68 56 49 43 31 19 14
76 67 63 64 55 51 48 41 35 43 29 32 38 35 32 30 30 34 36 31 27 33 44 54 58 62 65 68 72 76 82 97 100 91 79 71 59 53 48 37 20 15 12 12
93 83 93 65 63 52 42 39 39 37 35 32 28 30 36 41 42 40 37 32 32 42 53 61 66 68 74 74 81 94 86 81 79 80 68 59 54 42 26 18 16 17 17 18
96 96 69 73 70 65 60 55 51 50 48 47 45 46 49 53 62 56 41 41 43 50 65 70 73 74 83 80 79 87 96 96 75 64 64 54 35 24 23 24 26 27 26 22
96 96 95 70 63 68 57 56 57 61 60 36 20 18 33 52 53 53 50 63 55 64 70 74 80 90 93 95 96 93 75 72 73 71 60 41 34 34 34 36 35 31 24 17
96 96 94 74 63 50 41 43 45 42 37 42 32 22 36 58 58 57 60 68 88 89 83 81 81 87 96 96 94 78 80 87 89 82 62 48 42 44 44 38 29 18 14 12
100 97 94 68 67 49 39 30 21 17 14 13 14 13 22 42 62 60 67 70 83 92 95 94 97 99 96 95 87 92 96 96 95 79 66 57 57 54 45 33 22 18 16 12
76 82 75 67 60 60 49 39 29 21 17 14 15 24 49 61 66 58 64 82 94 100 100 100 99 97 96 96 96 97 96 97 90 83 72 72 69 51 34 27 23 18 14 11
55 48 51 56 53 41 27 28 24 22 20 18 20 23 28 31 36 48 60 92 100 100 100 98 96 96 96 96 96 96 96 96 97 94 83 69 51 39 32 26 19 14 13 12
56 54 47 43 43 41 36 35 40 35 27 26 26 27 26 28 32 39 62 95 100 99 98 98 97 97 97 97 96 96 96 96 96 84 68 55 50 46 35 25 20 18 19 19
41 38 37 43 46 44 41 40 38 40 40 39 37 37 42 46 50 59 71 100 100 99 98 98 97 97 97 97 96 96 97 91 87 81 76 69 70 58 41 33 30 31 33 35
46 51 57 59 58 56 57 54 51 53 57 59 57 58 64 74 83 88 96 100 100 100 99 98 97 97 97 97 98 99 100 100 97 80 83 87 75 58 49 49 51 54 56 58
55 57 61 64 63 64 64 65 69 78 85 90 88 90 97 100 100 100 100 100 99 98 98 98 98 99 100 100 100 100 98 97 94 95 95 83 73 72 74 72 72 74 74 70
74 74 75 77 81 84 85 89 98 100 100 100 100 100 100 100 100 99 99 98 98 98 99 99 99 99 98 98 97 97 96 96 94 92 89 84 82 79 72 63 55 49 43 38
82 86 94 99 100 100 100 100 100 99 98 98 100 100 100 100 100 100 100 100 100 99 98 97 97 95 94 92 88 84 78 69 60 51 44 39 37 35 34 32 30 28 26 25
99 100 100 100 100 100 100 100 100 100 100 100 100 100 100 100 100 100 100 98 94 89 83 77 71 64 56 50 44 39 36 35 34 32 30 28 26 24 24 25 26 25 24 26
100 100 99 99 99 99 99 99 100 100 100 100 100 98 94 89 85 81 77 71 64 59 55 52 50 49 49 49 49 46 41 36 31 27 25 24 24 24 26 27 28 30 32 37
73 76 78 82 91 92 97 100 99 98 98 96 94 90 87 85 81 78 72 68 65 61 58 53 50 46 42 38 34 30 27 25 24 24 26 29 32 34 37 40 44 46 48 49
65 79 87 94 96 93 88 84 81 78 74 71 67 64 61 58 57 53 50 46 43 40 37 34 32 30 28 26 26 26 29 31 34 36 37 38 39 41 42 45 46 48 50 50
80 90 94 93 91 88 87 83 76 67 59 52 46 40 36 32 30 28 28 29 28 27 27 28 28 30 30 30 30 30 30 31 32 33 35 37 39 42 46 52 56 58 59 56
98 100 100 98 91 78 66 48 30 24 23 22 21 20 21 24 26 32 37 37 37 35 34 33 32 32 33 36 38 39 41 41 42 43 44 46 47 49 51 56 58 62 61 58
100 100 100 86 64 37 28 33 37 38 38 36 32 29 30 39 44 46 46 40 37 39 41 45 49 50 49 48 47 45 48 50 50 51 51 52 52 53 55 59 65 68 67 60
100 100 86 71 39 35 42 43 50 51 52 52 52 54 53 49 45 45 46 44 45 46 45 48 56 59 62 61 57 58 61 60 60 61 61 60 58 61 61 62 64 71 74 72
78 80 83 62 41 48 56 59 56 52 50 49 51 52 54 55 53 61 64 65 62 58 50 52 58 62 66 68 70 70 71 74 75 73 70 70 70 68 67 67 68 72 76 77
93 91 89 47 54 66 65 59 55 54 52 51 52 58 66 69 68 66 62 61 64 72 73 73 74 74 73 74 76 78 79 78 79 84 82 78 78 77 77 78 77 76 74 77
84 85 55 53 74 74 67 64 61 63 63 59 54 53 53 65 73 75 77 76 77 76 73 72 78 87 87 86 86 85 85 86 84 83 86 84 80 76 77 81 81 80 78 78
Wind_Speed
34 25 21 25 24 31 44 49 28 48 45 43 39 26 23 19 19 18 18 20 22 24 25 29 30 32 31 31 33 33 32 31 29 29 27 27 25 24 23 21 20 20 21 22
29 25 26 30 25 24 24 37 52 47 42 30 24 24 34 28 24 20 18 17 19 23 26 27 28 29 29 30 31 31 31 31 29 28 28 28 26 24 23 22 23 25 25 24
27 21 18 25 39 35 37 33 27 38 32 31 38 36 29 22 21 21 20 22 23 24 26 26 27 28 29 30 31 30 29 29 30 31 29 27 26 25 25 26 26 24 23 23
15 15 6 26 25 24 23 28 29 37 33 25 22 21 23 27 27 23 22 22 23 26 27 28 29 30 29 29 29 30 31 31 30 29 28 27 27 27 27 26 25 24 24 23
8 17 15 8 12 17 24 25 27 29 28 28 30 29 33 32 34 34 31 28 24 26 28 29 29 29 30 31 32 34 31 31 30 29 28 28 27 27 26 26 26 26 26 26
10 4 6 5 11 21 19 22 20 26 28 26 23 28 32 33 33 31 36 33 25 26 27 30 32 33 35 33 33 32 30 29 29 29 28 28 27 28 28 28 28 28 29 30
23 8 4 9 12 10 10 8 16 20 23 28 32 29 24 26 26 31 34 33 34 33 34 36 35 34 34 34 33 32 31 31 30 28 28 29 30 31 31 30 31 32 33 34
15 8 9 17 15 14 13 10 8 9 11 11 13 19 20 22 22 24 28 33 34 34 35 34 34 35 35 34 34 33 33 32 29 29 32 33 32 32 32 33 34 34 35 35
10 8 9 8 10 13 14 15 14 11 8 6 7 9 11 13 17 18 22 28 32 34 34 34 36 37 37 37 37 37 34 31 31 33 33 33 33 34 35 36 36 36 35 35
13 16 17 13 13 13 11 9 7 10 11 9 8 7 7 8 11 13 17 23 30 32 34 36 37 38 39 40 39 37 35 33 31 32 33 34 35 36 36 36 36 36 36 36
18 19 16 15 17 18 18 17 16 15 14 13 12 12 11 11 12 13 16 22 28 33 35 38 40 41 39 37 35 32 29 29 30 32 33 35 36 36 36 36 36 36 36 37
17 18 19 17 15 15 16 16 15 15 14 14 15 15 15 15 16 16 18 22 27 31 34 35 34 34 33 30 27 26 28 30 31 33 36 37 37 37 37 37 37 37 37 38
20 19 18 16 16 16 16 17 17 17 16 15 15 15 15 15 15 17 19 23 27 29 30 30 29 27 25 25 27 29 30 32 35 37 37 37 38 37 37 37 37 38 39 39
16 16 15 15 15 15 15 15 15 14 14 13 13 13 13 14 15 18 20 21 22 21 21 22 23 24 26 28 30 32 34 36 37 37 37 38 38 38 38 38 38 38 39 40
16 16 15 13 12 12 12 12 12 12 12 12 12 13 13 14 15 16 18 19 20 21 23 24 26 27 29 31 33 34 35 35 36 36 36 37 37 38 38 38 39 40 42 44
11 10 9 8 8 9 10 11 11 12 12 13 13 14 15 16 17 19 20 21 22 24 25 26 27 28 28 29 30 30 31 32 33 34 35 37 39 42 44 45 47 48 49 50
6 5 4 5 5 6 7 8 9 9 10 11 12 13 14 15 16 17 18 19 20 21 22 23 25 26 27 29 30 33 35 36 39 41 43 45 46 48 49 50 51 52 52 51
5 4 3 3 3 3 5 6 7 8 9 10 11 12 13 15 17 18 19 21 23 25 27 29 31 33 35 37 39 41 42 44 45 47 48 49 49 49 48 47 46 45 44 42
4 4 4 6 8 8 9 10 11 12 13 15 16 18 19 21 23 24 26 28 30 31 34 35 36 38 40 42 43 44 44 44 44 43 43 41 41 41 40 39 38 38 37 36
10 10 12 13 13 14 14 15 17 18 20 21 23 25 26 28 29 30 31 33 35 36 36 37 37 37 37 37 36 36 35 34 33 33 33 32 33 33 33 33 33 33 33 33
14 15 15 15 16 18 20 22 23 25 26 27 28 30 30 31 32 32 32 30 33 31 30 29 29 29 29 29 28 29 29 29 28 28 29 29 29 29 29 30 31 31 30 30
16 16 18 19 20 22 23 22 20 19 19 20 20 21 21 22 23 22 21 22 23 23 22 22 23 22 22 23 23 24 25 26 26 27 27 27 28 29 29 29 30 29 29 28
18 18 18 19 20 18 15 15 15 15 15 15 16 17 17 17 18 18 18 22 19 20 19 19 21 22 22 23 23 23 22 22 23 25 25 26 27 28 28 28 29 28 28 28
18 18 19 20 16 14 15 15 14 14 14 15 16 18 19 20 21 22 24 23 23 23 23 22 23 23 23 25 24 23 23 24 25 25 25 25 25 26 27 27 28 28 28 28
18 20 21 17 15 14 12 11 13 16 18 19 21 23 26 27 28 25 28 29 29 29 28 27 28 28 28 28 27 26 26 26 26 27 26 26 26 26 26 27 26 27 28 27
21 21 19 15 14 12 12 13 14 16 17 18 19 22 23 26 29 31 31 33 34 33 32 31 32 32 32 32 31 30 28 28 28 28 28 27 27 27 27 27 27 27 28 27
22 19 17 16 14 13 14 15 16 19 22 25 24 25 26 25 25 27 28 29 32 34 34 32 31 32 32 32 31 31 29 29 28 28 28 29 28 27 27 27 28 28 28 27
Wind_Direction
241 243 250 256 254 243 226 232 223 256 253 259 256 259 262 258 254 257 257 247 237 233 230 228 227 228 226 219 217 214 216 218 219 223 226 229 230 228 225 221 223 228 235 241
259 254 253 255 252 247 244 242 239 243 253 260 263 253 249 249 252 254 265 255 243 234 225 221 218 214 209 209 211 212 216 216 219 221 224 227 226 223 226 232 241 248 249 247
251 250 255 268 250 251 251 254 258 248 265 267 261 263 262 262 259 252 262 262 250 237 228 219 213 210 210 209 210 213 214 214 218 222 222 220 223 231 240 246 245 241 240 243
237 227 227 253 254 247 248 253 256 261 264 259 253 250 247 249 255 256 252 250 243 234 226 220 215 212 210 213 212 210 215 219 218 217 220 228 236 241 242 240 240 243 247 250
213 206 245 241 234 236 243 251 248 249 252 254 255 251 247 247 250 248 241 239 239 233 225 221 218 218 212 213 217 218 219 216 217 223 231 236 239 239 240 243 246 250 253 258
220 231 221 248 244 238 230 252 254 258 259 255 250 255 255 246 243 240 236 240 231 231 227 224 218 221 222 221 217 214 213 219 225 230 235 238 241 243 246 249 252 257 262 266
237 235 269 241 270 264 200 253 246 257 262 257 259 258 251 240 237 236 228 227 232 222 220 222 222 223 221 215 212 215 220 226 231 236 241 244 245 246 249 253 258 262 266 269
230 236 252 247 250 240 252 258 267 291 284 279 255 245 241 234 232 229 229 224 221 221 220 220 219 216 215 215 219 222 227 232 236 242 246 246 248 251 255 259 263 266 269 272
219 226 236 237 241 251 260 266 265 273 276 278 262 236 221 224 220 224 225 222 220 219 220 220 217 215 216 219 223 228 230 231 235 241 244 247 251 256 260 264 268 271 273 274
238 250 255 259 256 261 262 258 262 264 265 262 237 202 196 208 218 212 213 214 218 219 219 218 218 219 222 226 228 228 229 231 235 240 246 251 257 263 268 271 274 275 275 275
251 259 264 264 262 260 260 265 268 262 255 248 236 226 228 231 229 224 220 218 219 219 219 219 221 225 229 231 232 232 233 237 243 249 255 261 267 272 276 277 276 276 275 274
254 261 262 262 262 260 259 260 259 256 251 247 242 238 230 226 225 225 224 219 220 223 224 225 227 228 229 229 231 237 242 247 254 261 267 271 275 278 277 276 275 274 273 272
264 264 263 262 264 267 265 261 258 255 253 249 245 241 235 229 225 225 224 219 220 221 222 223 224 226 231 235 240 245 251 256 264 271 271 273 275 274 274 273 272 272 272 272
278 279 275 270 267 266 262 258 252 249 246 241 237 233 229 226 225 223 221 222 223 226 230 234 237 241 244 248 252 256 260 266 269 269 270 271 272 271 270 269 269 270 272 272
275 276 276 274 266 258 252 247 240 236 234 231 228 224 222 221 220 222 224 228 231 235 239 242 246 250 254 259 264 267 269 269 269 270 270 271 271 271 271 271 270 270 271 273
281 276 272 266 258 249 245 244 243 240 239 239 239 238 239 239 241 243 245 248 250 254 257 260 263 265 267 268 268 269 269 270 271 272 274 276 277 277 277 277 278 278 278 278
279 274 270 265 256 251 248 246 246 246 246 246 247 249 252 254 255 255 255 257 258 260 262 263 263 264 266 268 270 273 275 277 279 281 281 282 282 282 280 279 279 279 278 278
282 278 281 271 271 273 269 264 261 259 257 255 253 252 253 254 256 258 260 262 263 263 264 268 270 272 274 275 277 278 280 280 281 280 280 280 279 278 277 277 277 277 278 278
360 325 301 290 283 279 276 273 271 269 267 267 268 267 267 267 268 269 271 273 273 274 275 276 277 277 277 278 278 278 277 276 276 276 276 276 276 276 276 276 276 276 277 277
296 278 272 271 271 274 275 277 278 279 279 279 278 278 278 277 277 277 277 277 276 277 278 278 278 278 278 278 278 278 277 277 277 277 277 277 276 277 277 277 277 277 276 276
271 271 274 276 278 280 281 281 281 281 280 279 278 277 277 277 277 277 277 277 277 279 278 279 279 280 281 281 281 280 280 280 280 278 278 278 278 277 275 274 274 276 276 276
275 278 282 286 288 290 290 289 287 286 287 287 285 282 280 278 278 278 278 278 280 281 280 281 281 281 281 280 279 280 281 281 281 280 278 277 276 276 276 276 275 275 275 275
281 285 287 292 296 292 289 291 291 292 293 294 295 292 289 283 281 280 279 283 281 281 282 282 283 284 284 283 283 281 281 280 279 279 280 279 278 278 278 277 276 276 275 274
283 287 290 297 289 285 289 291 291 293 294 295 293 290 288 284 281 281 278 276 277 276 277 278 279 280 281 281 282 283 281 280 280 281 280 281 281 279 279 278 276 274 273 273
284 287 290 291 286 288 288 294 302 304 305 303 298 292 289 286 284 277 276 277 277 276 276 276 277 278 279 281 282 282 280 280 280 280 281 281 281 282 281 280 278 276 274 273
285 284 284 279 279 280 289 298 306 311 314 315 316 309 301 293 288 284 280 278 277 275 275 274 275 275 275 275 276 277 278 278 278 279 280 280 280 281 281 280 278 276 274 272
279 273 270 269 267 276 289 299 308 316 321 322 323 320 313 304 298 294 289 284 279 276 275 273 272 273 274 274 272 272 273 275 276 277 278 279 280 280 280 279 277 275 274 273